RH
36 27 20 19 18 22 25 24 28 39 45 44 46 52 58 71 90 98 96 97 92 76 61 62 72 82 91 96 98 103 97 81 73 64 55 68 87 95 99 90 76 76 71 47 26 25 27 23 20 20 21 26 30 36 52 66 69 75 89 96 93 85 77 68 60 55 53 51 47 45 45 45 43 40 36 30 27 29 36 47 55 50 39 34 34 37 41
38 32 22 20 18 19 22 22 24 31 38 40 41 46 53 63 83 99 101 100 101 94 76 66 78 94 102 103 100 102 101 92 83 75 71 79 85 87 87 75 67 75 78 67 52 43 44 45 38 29 26 29 34 42 58 69 73 83 97 99 92 84 78 71 64 62 64 60 55 53 50 47 43 39 36 32 28 28 35 45 56 57 47 37 34 33 34
39 37 26 21 20 18 19 21 22 26 33 36 38 40 44 57 77 93 100 100 99 102 96 79 74 88 101 103 98 99 102 99 94 89 85 84 81 73 73 78 85 93 98 93 82 66 52 44 43 40 36 38 44 50 59 68 77 92 102 99 96 95 89 80 70 63 60 57 52 47 43 42 41 38 36 34 30 29 32 40 49 51 48 43 38 36 32
38 40 31 23 20 19 18 19 20 25 32 37 39 38 35 44 65 84 98 104 99 98 103 95 80 78 90 98 95 92 96 96 92 88 84 82 75 64 72 87 84 87 99 88 71 66 52 36 36 39 40 47 52 53 60 73 88 100 102 99 100 100 94 86 76 63 54 51 48 44 43 42 41 39 37 35 33 31 31 37 43 44 46 47 42 38 36
35 41 36 27 21 20 19 18 20 23 30 36 40 39 34 35 50 71 87 98 100 98 101 102 96 85 83 92 95 89 93 94 79 65 63 66 64 60 72 84 78 84 96 77 61 68 60 40 35 34 37 51 58 59 70 88 99 101 99 99 100 100 95 85 76 67 62 57 53 51 51 47 42 40 38 37 37 37 38 43 50 48 46 50 50 43 41
32 41 40 31 23 21 19 18 20 23 28 36 41 42 41 40 45 60 76 91 100 101 98 100 104 99 92 97 96 84 85 85 67 59 63 57 52 57 64 69 75 84 86 70 63 70 61 41 30 30 39 50 59 71 89 100 101 99 100 100 99 100 96 87 79 73 66 61 55 54 53 49 45 42 39 39 41 44 48 54 61 60 54 57 61 53 45
29 39 42 36 26 22 21 19 19 22 28 36 41 44 51 54 53 59 73 88 98 101 100 99 101 101 98 98 87 71 69 71 64 72 83 70 62 66 60 56 65 75 76 73 66 60 55 42 30 36 51 56 65 85 99 101 100 101 101 100 100 101 96 91 90 82 70 64 59 56 53 49 46 42 40 43 46 50 56 60 63 62 57 61 65 59 51
26 35 43 41 31 24 22 20 19 21 28 38 44 45 52 57 55 57 69 85 96 100 100 100 100 100 101 95 73 51 50 59 62 69 78 82 90 90 75 68 73 77 83 86 70 51 47 48 46 53 63 66 77 94 99 98 99 100 99 97 99 101 94 91 92 85 77 72 65 60 56 49 45 43 42 45 47 51 55 58 59 56 55 62 65 61 59
23 32 42 44 37 28 23 22 21 21 28 41 49 49 53 56 52 50 60 79 96 100 94 95 98 99 103 96 68 42 39 52 69 76 70 75 88 83 73 78 86 91 97 94 77 58 50 53 59 64 66 70 83 92 92 93 95 96 96 92 93 96 92 86 84 85 86 82 74 67 59 52 50 47 44 44 46 47 48 52 57 53 53 62 64 61 62
22 28 39 46 42 32 26 23 22 21 26 38 50 54 60 68 65 54 52 67 91 102 98 97 98 96 99 94 70 49 45 55 78 91 77 68 70 66 68 84 94 99 100 91 78 63 48 45 57 64 67 75 83 82 81 89 97 98 91 84 86 93 90 79 76 82 87 81 74 69 63 60 58 53 48 45 44 45 44 47 55 54 52 58 62 62 62
23 25 34 44 46 38 30 26 23 22 24 33 46 53 57 67 71 63 57 63 80 95 99 97 97 96 98 93 74 58 56 61 75 88 81 71 71 74 85 98 99 97 94 84 74 62 44 42 60 69 70 78 83 79 82 93 95 89 81 78 85 92 86 75 74 78 78 74 72 71 67 64 60 56 52 48 46 47 44 43 51 54 53 57 61 64 64
23 24 29 40 47 43 34 28 25 23 23 27 38 47 50 60 69 65 60 62 72 87 94 93 95 98 95 84 66 53 56 64 70 78 79 76 80 91 99 96 84 77 74 68 67 68 58 54 64 73 77 87 94 91 95 99 91 84 84 84 89 93 82 71 75 78 76 76 78 75 68 63 61 58 54 51 51 52 48 44 45 47 51 55 58 63 65
25 24 27 34 45 48 40 32 27 25 23 25 34 43 49 58 69 68 58 58 68 83 93 93 96 98 90 73 55 42 47 60 66 71 78 82 87 96 97 84 72 68 68 67 70 77 77 66 63 73 87 98 101 96 96 98 94 93 92 85 87 95 85 70 74 80 80 79 78 75 70 64 63 61 56 54 56 53 48 44 41 41 46 51 55 62 66
27 24 26 30 40 49 46 36 29 26 24 23 29 42 49 55 66 70 61 56 64 78 92 99 99 97 86 66 50 41 41 53 67 79 88 94 95 93 84 74 69 71 75 75 72 77 87 79 68 78 96 101 100 98 94 92 95 95 88 80 86 97 92 79 74 77 79 76 72 72 72 67 64 63 60 57 56 52 47 45 44 43 44 47 52 60 63
31 24 26 28 34 45 49 43 33 27 26 24 25 36 48 50 58 66 62 57 62 75 94 102 96 93 86 65 48 44 42 49 69 87 94 98 99 92 79 70 72 79 84 82 76 83 95 89 75 86 102 100 98 102 97 93 97 96 89 86 93 102 100 90 79 76 77 76 72 71 71 67 62 61 61 58 55 52 48 48 50 48 44 45 48 51 56
35 25 26 28 30 39 48 49 40 29 26 26 23 29 41 47 52 61 62 58 58 69 88 97 89 85 87 73 54 49 49 51 64 75 79 87 99 96 83 76 82 90 90 83 83 94 102 94 85 94 103 99 98 102 100 98 100 98 95 95 98 101 96 83 77 76 74 74 77 75 69 64 61 60 60 57 54 53 52 52 55 55 50 46 45 46 51
41 26 26 28 28 34 44 50 47 35 28 27 24 24 34 43 50 58 64 62 57 61 76 89 88 83 89 89 74 62 58 56 57 60 62 73 92 97 88 83 88 92 88 82 88 100 101 94 95 100 100 100 101 96 94 100 101 96 98 100 95 91 82 71 71 75 70 70 76 74 66 62 59 58 59 56 52 54 57 57 55 57 59 56 51 50 55
49 29 25 28 28 30 39 48 50 42 32 28 27 23 27 37 47 56 65 66 61 59 67 85 96 92 92 99 92 77 67 59 56 61 60 61 78 91 90 87 88 89 89 86 90 99 96 89 96 104 99 98 102 94 88 96 99 96 98 97 85 76 71 67 70 72 67 68 73 71 66 64 62 61 62 60 56 55 58 60 59 59 65 66 61 58 59
57 34 25 29 29 29 35 44 51 48 37 29 28 26 24 33 44 53 61 66 64 59 62 80 99 98 90 94 95 87 80 73 70 71 63 58 76 90 89 90 93 90 89 87 83 86 87 83 90 102 101 99 103 97 88 91 96 96 95 88 77 70 68 67 71 71 66 65 68 68 68 68 67 67 66 61 59 59 61 63 63 63 66 68 68 67 64
64 39 26 28 31 29 32 40 48 52 43 31 28 27 24 28 41 51 59 65 69 66 61 70 89 95 90 92 97 95 91 88 87 83 69 69 87 93 85 89 96 91 89 87 74 65 71 77 84 94 101 103 101 96 90 88 90 95 96 87 76 72 71 68 70 70 66 62 61 63 68 69 67 68 69 65 61 59 58 58 61 64 66 67 70 73 72
70 45 27 27 32 30 30 37 46 52 49 37 28 27 25 25 36 50 59 65 70 69 62 63 79 95 98 95 97 99 94 89 92 93 85 85 96 96 86 86 89 86 87 89 77 61 60 66 73 84 98 102 98 94 91 86 83 88 92 85 76 74 74 71 69 67 64 64 63 66 74 77 72 70 74 75 71 64 57 56 58 59 60 62 66 70 74
74 52 30 25 32 32 29 35 43 50 52 43 31 26 26 25 31 44 56 64 69 71 68 63 70 89 102 98 95 99 97 88 88 93 94 92 94 92 87 84 83 83 83 86 84 75 65 60 59 68 82 91 92 94 94 90 87 87 85 80 78 78 75 73 74 69 63 65 71 74 80 84 80 78 78 80 79 74 69 66 64 61 60 60 61 62 64
76 58 33 23 30 33 30 33 41 49 52 48 36 27 25 25 28 39 52 59 66 76 79 68 62 79 99 101 96 98 97 93 91 93 94 93 88 85 85 85 88 92 91 90 92 89 81 72 62 58 62 69 73 80 86 88 89 89 83 77 79 82 76 70 71 70 66 68 75 80 83 83 82 82 82 81 79 76 73 71 70 67 66 65 62 61 61
76 60 36 23 27 34 32 32 39 48 52 50 41 30 26 25 27 38 51 59 65 74 76 63 54 67 89 99 99 97 99 100 97 92 92 93 90 87 89 91 93 98 99 99 99 100 98 93 82 72 67 63 60 61 66 71 76 80 81 77 76 80 79 71 70 74 77 78 78 79 82 82 79 78 79 79 77 74 72 72 71 68 70 73 72 71 71
76 62 38 23 25 33 34 33 38 47 52 52 45 34 27 26 26 32 46 58 67 75 77 64 51 55 75 94 101 99 99 103 99 91 91 96 97 95 97 96 93 92 94 92 90 93 99 100 96 89 81 71 64 60 60 62 65 71 77 79 76 76 77 74 72 77 83 85 81 77 77 78 75 72 71 70 71 70 70 72 74 76 79 82 81 79 79
76 62 39 23 23 32 35 34 38 46 51 53 49 37 29 27 26 27 39 54 63 72 82 79 63 52 59 81 98 100 99 102 100 92 88 92 94 95 98 99 95 89 89 90 86 84 87 90 91 92 89 78 70 66 64 64 66 68 71 74 72 69 70 72 72 73 76 79 78 75 74 72 69 65 63 65 69 69 68 69 74 81 85 83 77 75 76
75 59 37 22 21 31 36 35 38 45 50 53 51 41 31 28 27 26 37 52 58 64 78 89 84 68 57 65 83 97 100 99 99 94 89 89 93 95 99 101 95 86 87 93 94 92 91 90 88 90 91 85 77 73 73 74 75 73 70 67 66 64 66 69 71 72 74 73 72 72 72 70 66 61 60 64 69 72 76 78 78 81 82 77 71 69 70
72 56 34 20 19 28 37 37 38 44 51 53 52 44 33 30 29 26 34 49 57 59 70 87 94 85 69 61 68 84 97 101 99 96 96 97 97 96 98 99 94 87 87 93 97 98 98 97 95 92 90 88 83 81 83 82 79 76 72 67 64 65 67 68 70 74 75 70 68 69 70 68 65 61 60 63 65 67 71 73 75 79 80 73 67 68 70
69 51 30 19 19 27 36 39 38 44 51 53 53 47 36 31 30 27 31 45 56 60 66 80 89 87 80 72 64 65 80 96 100 96 96 101 101 96 95 96 97 97 97 97 100 100 96 95 97 96 92 90 86 85 87 86 80 74 70 66 64 65 65 66 70 77 77 71 66 66 67 67 68 67 67 65 60 56 56 55 60 73 81 76 69 68 69
64 46 27 18 18 25 35 40 39 44 51 54 53 50 40 32 31 29 29 39 53 58 62 73 83 84 82 80 71 59 61 77 91 93 91 95 99 98 93 91 92 95 97 98 100 101 98 97 97 96 94 92 90 91 94 94 90 84 76 70 69 66 64 65 70 76 77 71 66 64 64 65 67 67 67 64 58 59 70 74 71 75 80 77 70 67 68
60 41 25 18 18 24 35 41 39 43 52 55 54 52 44 34 32 32 29 35 49 57 58 66 78 82 78 76 75 70 62 60 70 82 85 86 90 95 97 95 91 86 86 87 90 93 97 99 99 100 100 97 93 95 98 97 94 91 87 87 85 77 67 64 68 73 74 72 70 70 71 74 75 74 72 67 61 64 78 85 79 73 72 70 65 61 65
55 36 23 19 19 24 34 41 41 44 53 56 56 55 48 36 33 35 32 33 44 53 56 61 72 79 78 74 74 75 69 58 56 65 74 79 81 84 89 90 85 79 75 74 74 76 79 83 87 94 101 99 94 94 98 98 95 94 95 98 97 89 79 74 74 78 83 85 87 90 91 90 87 83 80 75 68 63 65 68 66 64 63 62 58 56 59
48 31 21 19 20 25 35 42 42 46 55 58 58 59 52 39 35 37 35 34 40 48 54 60 68 75 77 75 73 72 72 69 61 55 57 64 69 73 77 76 71 69 68 65 63 64 65 65 67 74 86 95 96 97 99 100 100 100 97 93 92 92 92 88 82 80 86 91 94 98 98 92 83 76 74 73 70 67 64 61 60 59 58 57 55 54 54
38 27 21 20 21 27 37 44 44 48 57 61 61 62 55 42 37 40 39 37 40 46 52 58 67 74 73 70 71 73 75 79 77 67 59 57 56 59 67 71 68 67 65 60 58 59 59 57 56 59 68 80 90 98 101 99 95 93 91 87 86 89 93 92 86 83 88 92 90 88 88 85 79 74 72 71 70 70 68 65 64 63 60 58 57 57 57
32 24 21 20 23 29 40 46 46 50 58 62 64 64 57 44 40 45 45 41 41 46 52 58 66 75 75 70 69 71 73 78 84 81 76 73 64 53 54 61 65 66 66 63 59 58 55 52 51 53 57 64 72 81 89 90 87 85 84 83 82 81 83 85 84 84 89 94 92 85 82 83 81 79 77 75 76 76 75 72 70 69 68 66 65 64 62
28 23 20 21 24 32 42 48 47 51 60 64 66 66 58 46 42 46 49 45 43 46 55 63 69 73 75 72 69 70 71 76 84 86 87 88 83 68 60 61 61 59 59 61 62 61 57 52 49 48 49 53 58 62 65 70 74 77 79 80 79 76 74 75 75 75 79 87 89 86 82 80 78 76 75 75 77 78 75 68 62 59 59 58 57 56 54
25 22 21 22 26 35 44 49 48 53 62 67 69 68 60 49 45 49 51 49 44 46 59 72 75 72 71 70 68 69 71 73 78 86 91 95 93 84 77 77 74 64 55 54 57 60 60 58 55 52 49 49 52 55 55 56 59 61 64 67 69 68 67 66 66 66 69 74 79 80 78 74 71 69 68 69 70 70 66 57 48 44 43 41 40 38 37
23 21 22 24 29 38 46 49 50 55 64 70 71 70 63 51 47 51 55 53 49 49 62 80 82 74 69 67 66 70 74 70 69 77 88 96 97 91 85 85 86 77 66 58 54 54 58 61 60 56 52 50 50 52 54 55 55 53 52 51 52 55 56 57 58 58 60 63 68 71 72 70 68 65 64 63 64 62 57 49 41 37 35 34 33 31 30
22 22 24 27 34 41 48 51 53 59 69 75 75 73 66 55 50 55 59 59 57 57 69 85 88 76 68 65 63 66 69 64 58 61 69 78 85 82 75 75 80 78 73 68 62 54 54 58 59 56 55 55 54 55 56 56 56 54 51 49 49 50 51 51 52 54 55 57 59 61 62 63 63 61 60 58 56 53 49 44 40 37 36 34 33 31 31
23 24 26 31 38 45 50 53 55 62 74 82 82 78 69 60 57 62 65 65 64 64 74 89 91 77 67 64 63 63 62 56 49 49 50 53 59 61 57 56 63 65 63 65 68 62 54 52 55 57 57 57 58 59 58 57 56 56 54 53 52 52 52 52 53 53 54 54 54 54 54 55 55 54 53 52 50 48 45 43 41 40 38 37 36 36 35
26 27 30 37 44 50 54 56 58 67 81 88 87 82 74 65 65 71 73 71 71 72 79 90 94 83 68 63 65 68 65 55 45 42 41 40 42 44 39 38 45 50 46 47 60 68 63 55 53 56 58 58 60 60 58 56 55 56 55 54 53 51 50 50 50 50 51 51 50 49 48 48 47 46 46 46 46 46 46 45 44 43 41 39 38 38 37
28 30 36 43 50 55 58 59 62 73 88 94 90 84 77 73 77 83 80 75 77 79 79 85 92 88 74 65 66 73 78 70 53 41 34 32 33 34 30 27 32 38 36 36 47 61 66 63 60 59 58 58 58 58 57 55 53 53 54 54 52 51 50 48 47 46 45 44 43 43 43 42 40 39 39 40 41 42 42 43 43 42 41 39 38 37 38
31 35 42 50 57 59 60 62 68 80 94 101 96 87 81 82 88 89 80 71 74 80 81 81 87 89 81 69 65 71 82 86 77 59 39 26 23 25 24 22 23 26 30 32 36 43 52 59 62 62 61 60 59 58 57 56 56 58 58 55 53 52 52 50 48 47 46 46 48 52 54 53 50 47 45 43 43 43 43 43 42 41 39 38 38 38 39
37 42 49 57 63 63 63 69 78 89 99 104 101 93 86 86 87 84 76 69 72 82 89 90 91 93 88 77 68 68 76 88 92 81 58 34 21 18 18 17 16 19 24 28 28 30 35 41 47 54 60 64 66 65 63 63 65 68 68 65 63 62 63 64 64 62 58 59 63 67 69 69 65 61 56 52 49 47 46 44 42 41 41 43 45 48 50
45 52 59 65 68 66 66 75 89 96 100 103 101 94 87 82 78 77 78 76 75 83 93 96 96 99 98 89 76 70 72 80 89 90 77 52 29 17 15 15 13 13 16 19 22 25 30 32 36 45 56 65 69 70 68 66 67 66 63 59 56 55 59 71 83 86 82 78 77 75 73 73 71 68 65 62 58 55 53 50 50 51 54 56 58 59 58
55 61 65 69 69 67 69 82 96 102 101 99 96 89 80 74 72 74 79 80 78 82 91 96 98 101 103 99 89 79 73 74 81 89 87 72 47 26 16 14 13 10 10 11 13 17 24 28 33 41 52 60 63 60 55 50 47 43 36 31 29 31 38 55 73 81 81 78 73 68 65 64 62 61 61 60 58 56 55 54 54 53 52 50 48 44 40
63 67 68 69 69 68 71 83 97 103 101 98 94 86 79 75 73 76 83 86 83 82 87 93 96 98 99 100 98 91 82 76 78 84 87 82 65 41 23 16 13 10 8 7 8 9 14 19 24 29 35 39 38 32 25 21 19 16 12 10 12 15 20 27 35 39 40 39 37 34 33 32 30 29 30 30 30 29 28 27 26 25 21 18 16 14 12
70 70 69 68 67 67 73 85 96 100 100 99 95 87 80 76 75 80 91 96 92 88 89 94 97 98 98 99 100 99 93 87 85 85 84 80 70 52 33 21 16 12 8 7 7 7 9 13 14 14 15 16 14 10 8 7 6 5 5 6 7 8 9 11 14 15 15 13 11 9 8 7 7 6 7 7 6 6 6 6 6 6 5 4 4 4 4
72 72 70 69 67 66 73 88 98 99 98 101 100 93 85 79 76 81 92 99 97 93 94 98 100 101 101 100 100 101 100 97 95 93 87 78 68 55 40 26 18 14 11 8 8 8 10 11 9 7 7 7 6 5 5 5 5 5 5 5 5 6 6 7 8 9 9 8 7 6 5 4 4 4 4 4 4 4 4 3 3 3 4 4 5 5 5
70 70 68 68 68 69 75 87 98 101 100 102 104 100 93 87 83 83 91 99 100 96 95 98 100 101 102 101 100 100 100 100 99 99 95 83 69 54 40 28 20 17 14 11 9 10 11 11 9 7 6 6 6 5 5 5 5 5 5 5 5 5 5 5 5 6 6 6 6 5 5 5 5 4 5 5 5 5 4 4 4 4 5 5 5 6 7
65 65 65 66 69 74 80 89 98 102 102 103 104 102 97 95 93 92 95 101 103 99 97 97 95 94 95 100 101 100 100 101 102 100 97 89 76 58 41 29 22 19 17 15 14 13 11 11 10 9 9 9 9 9 8 7 7 7 6 6 6 5 4 5 5 5 5 5 5 5 5 5 5 5 5 5 5 6 6 5 5 5 4 5 6 8 8
59 61 64 65 67 72 82 92 99 102 102 103 104 103 100 98 96 96 99 102 103 101 100 99 95 92 94 99 101 99 98 100 98 94 91 91 86 70 51 35 26 21 19 18 18 17 15 14 13 12 13 13 13 11 9 8 9 9 8 8 8 7 6 5 5 5 4 5 5 5 5 5 5 5 6 6 6 6 6 6 6 6 5 6 7 9 10
Wind_Speed
25 25 23 21 21 20 20 21 22 23 25 26 26 27 29 30 29 28 31 34 34 30 28 28 28 28 27 24 23 21 19 15 11 9 8 7 8 6 4 2 8 15 17 21 28 30 32 38 44 48 48 50 51 52 52 51 51 50 46 43 42 42 43 44 45 44 42 42 42 42 43 43 44 44 46 48 49 48 47 45 42 42 42 41 40 39 38
24 25 24 22 21 21 20 21 22 23 24 25 25 25 27 28 28 27 27 30 33 32 29 27 27 29 29 27 24 20 18 16 13 10 7 7 8 4 6 11 18 22 21 19 21 22 26 31 38 43 45 47 49 50 51 51 50 48 44 41 40 40 41 43 44 44 42 41 42 44 46 46 45 45 46 47 48 47 46 44 41 39 40 41 41 39 38
24 24 24 23 22 21 21 21 23 24 25 26 26 25 25 26 26 27 26 26 30 32 30 26 25 28 31 30 26 21 18 17 16 12 8 9 8 9 16 22 25 24 21 19 17 17 22 27 32 37 41 43 46 49 51 51 48 45 43 41 40 38 37 39 42 45 47 47 47 48 49 50 48 46 45 47 48 47 46 44 43 40 37 38 39 39 38
24 24 24 23 22 22 21 21 22 23 24 25 26 25 25 25 25 26 25 25 27 31 30 27 24 26 29 29 27 23 20 18 18 14 10 11 13 17 22 23 23 21 17 17 18 17 20 25 29 34 39 43 46 50 51 49 46 44 43 42 41 39 38 38 39 43 46 46 46 46 47 49 49 47 46 47 47 47 46 44 43 41 37 34 33 34 34
24 23 23 23 23 22 21 20 21 22 23 24 26 26 26 25 25 24 24 24 25 27 29 29 25 24 26 28 26 22 18 16 15 15 14 15 18 22 23 20 19 18 16 18 21 19 20 25 29 35 41 45 48 51 50 46 45 45 44 44 43 40 40 40 39 39 40 40 42 43 44 47 48 46 46 47 48 48 46 44 41 39 37 31 27 28 29
25 23 23 23 23 22 22 21 20 20 21 22 24 25 26 26 25 24 24 23 23 23 26 29 28 26 26 27 26 22 16 12 13 17 18 18 21 23 22 19 17 16 17 21 22 20 20 23 28 35 40 45 50 50 48 46 46 47 46 47 44 40 42 41 38 37 37 37 39 39 40 43 44 44 44 46 48 48 46 43 39 36 34 27 22 22 24
25 23 22 22 22 22 22 21 20 20 20 21 22 23 24 24 24 23 23 24 22 21 21 24 27 28 27 26 25 23 17 12 10 11 13 17 21 21 19 17 17 17 19 20 19 20 22 25 28 32 37 45 50 50 49 49 48 47 47 48 43 40 42 40 35 35 36 36 37 38 38 41 42 43 43 44 46 47 46 43 39 35 33 28 23 21 21
25 23 22 21 22 21 21 21 21 21 21 21 23 24 24 22 21 21 21 22 22 20 18 20 23 26 26 23 22 22 17 14 13 12 11 13 15 15 16 19 21 21 21 19 17 19 24 28 30 32 37 45 50 51 50 50 49 47 47 48 44 40 41 40 35 34 34 34 35 37 39 40 41 42 42 42 45 46 46 44 41 38 34 30 27 24 22
25 23 22 21 21 21 20 20 20 19 19 20 22 24 25 25 23 21 19 19 20 20 19 20 21 24 24 20 18 19 16 13 14 14 12 10 10 12 17 23 24 22 21 19 17 20 25 29 32 35 39 46 50 50 50 50 48 45 45 46 44 39 40 40 37 35 34 33 34 36 39 40 40 41 42 42 43 45 45 44 42 39 36 33 31 28 24
25 23 21 20 20 20 20 19 19 18 18 18 19 22 24 25 24 23 21 19 18 18 19 20 22 24 24 19 16 16 15 12 12 14 13 13 14 16 21 23 21 18 18 18 17 20 24 29 33 36 41 46 48 48 46 47 46 41 40 44 42 37 38 39 38 36 35 35 36 37 39 40 41 41 42 42 42 43 43 43 43 41 38 35 32 30 27
26 23 21 20 20 19 19 18 18 17 16 16 17 18 20 21 21 21 21 20 18 17 16 18 22 24 22 18 14 13 13 13 12 12 13 13 15 17 18 16 13 14 18 19 18 21 25 32 35 37 43 48 48 45 44 47 46 40 38 41 37 34 36 38 38 38 36 35 36 38 41 42 42 42 41 41 41 40 41 42 44 44 40 36 34 32 30
27 23 21 19 19 19 18 18 17 17 16 15 16 17 18 19 20 19 18 18 18 17 16 18 20 22 20 15 12 11 10 11 10 10 11 12 13 11 9 8 11 17 20 19 21 24 27 32 35 39 47 49 45 45 45 45 45 41 39 40 36 32 35 38 38 37 34 33 35 38 42 43 42 41 40 40 40 39 38 39 42 43 41 38 36 35 32
27 24 21 19 19 18 18 17 16 16 16 15 15 16 17 18 19 18 17 17 16 16 17 17 18 19 17 13 11 10 9 9 9 9 9 9 7 5 5 9 15 20 21 19 22 25 26 32 38 44 49 45 40 42 44 44 43 39 38 42 38 34 35 36 37 36 34 33 33 35 39 42 41 40 40 39 40 39 37 37 38 40 41 40 38 36 35
28 25 22 19 18 18 17 16 16 16 15 15 15 15 16 16 17 17 16 15 15 15 16 15 15 15 14 12 10 9 8 8 7 7 6 6 5 5 8 13 17 21 21 20 23 24 26 34 42 47 49 41 35 40 44 42 39 36 39 42 37 33 35 35 35 35 33 33 33 33 35 38 39 40 40 40 40 39 37 36 36 37 39 40 39 37 37
28 25 22 20 18 17 17 16 15 15 15 14 14 14 14 15 15 15 14 14 13 13 13 12 12 12 12 11 9 8 7 5 4 4 8 11 9 8 11 14 18 22 22 21 24 25 26 34 42 47 46 37 34 40 41 36 34 36 40 40 33 31 37 36 33 33 33 32 33 33 33 36 37 39 40 40 39 38 36 36 35 36 36 38 39 40 39
28 26 23 20 18 17 16 16 15 14 14 14 13 13 14 15 15 14 14 13 12 10 9 10 10 11 13 12 8 7 5 3 2 3 7 12 11 10 14 16 19 23 22 22 25 25 24 31 41 45 39 31 33 39 34 28 33 38 40 38 34 34 38 36 33 33 32 32 32 32 32 34 36 38 39 37 36 36 35 36 36 35 34 35 38 41 41
29 26 24 21 19 17 16 15 15 14 14 14 13 12 13 14 14 14 13 12 11 10 8 8 8 9 12 12 8 5 2 0 0 1 4 8 10 10 15 18 20 22 21 21 25 26 24 29 39 42 33 26 29 34 29 28 36 40 37 37 39 40 38 35 34 34 32 32 32 31 30 31 32 35 35 34 34 35 36 38 38 37 35 36 37 39 40
29 27 24 22 19 18 16 15 14 13 13 13 13 12 12 13 13 13 12 11 10 9 7 6 6 5 7 8 7 5 1 2 3 3 1 3 6 7 13 19 22 22 21 21 25 27 27 30 37 40 32 24 25 29 29 31 35 38 37 36 38 38 36 34 35 33 31 30 30 30 28 27 28 30 31 32 34 36 39 41 40 39 38 38 38 39 40
29 27 25 22 20 18 16 15 14 14 12 11 12 12 11 12 12 12 11 9 8 8 6 5 4 3 3 5 6 6 3 1 3 4 3 2 0 6 12 17 20 19 18 20 25 28 29 30 34 38 33 26 25 28 30 32 33 35 36 36 37 37 35 35 34 32 29 27 27 27 26 26 27 28 29 29 31 35 40 43 42 41 40 39 39 38 39
29 27 25 23 20 18 17 15 14 14 13 11 11 11 11 11 11 12 11 8 8 8 6 5 4 3 3 3 4 6 5 2 1 3 3 3 3 11 15 16 17 17 15 18 24 28 28 27 32 37 36 31 28 28 30 33 35 36 35 35 36 36 35 34 32 30 27 24 23 24 24 24 25 27 27 26 26 30 37 41 43 42 42 41 41 39 37
29 28 25 23 21 18 17 15 14 14 13 11 10 9 10 10 10 10 10 8 7 7 6 5 4 3 4 2 1 3 5 3 1 3 4 4 8 15 17 16 16 16 14 16 21 25 26 26 29 35 37 35 31 28 28 31 34 35 35 35 34 33 32 31 29 27 25 24 23 23 23 23 23 23 24 24 24 26 30 35 39 40 40 41 42 41 39
29 28 26 23 21 19 17 16 14 13 13 12 10 9 9 9 10 10 10 8 6 6 6 6 4 2 3 2 1 2 5 5 4 5 7 10 12 15 17 15 15 15 15 15 18 21 24 26 28 31 34 35 33 30 27 27 28 31 33 33 32 31 30 29 28 26 25 25 25 24 23 23 22 21 22 23 23 24 25 27 31 34 35 37 38 39 40
28 28 27 23 21 19 17 16 15 13 13 12 11 10 9 8 9 10 10 8 6 5 5 5 4 2 2 2 2 4 7 7 6 6 9 12 14 15 15 14 13 13 14 14 17 20 22 24 27 30 31 32 32 31 28 25 24 26 28 29 30 30 30 29 28 28 27 26 27 27 25 24 24 24 23 23 23 23 23 24 25 27 29 31 32 33 35
28 28 27 24 21 19 17 16 15 14 13 12 11 10 9 8 9 10 10 9 6 5 4 4 4 4 3 3 3 5 7 7 6 6 8 11 14 15 13 11 11 11 11 11 15 20 22 24 27 29 30 31 31 31 30 28 27 27 27 28 29 30 30 30 29 29 29 28 28 28 27 26 26 25 25 25 24 23 23 23 24 24 24 25 27 28 30
28 28 26 24 21 19 17 16 15 14 13 12 11 10 9 8 9 10 10 9 7 5 5 4 3 4 4 4 4 6 7 6 6 6 7 10 14 14 11 8 8 10 9 9 12 16 19 22 25 27 29 30 31 31 31 31 30 31 30 30 30 31 31 31 30 31 31 31 30 29 28 27 27 26 26 26 26 25 24 24 24 24 24 24 25 26 28
29 28 26 24 22 19 16 16 15 14 14 13 12 10 9 8 9 10 11 10 8 6 5 4 3 3 4 5 6 8 8 6 5 6 8 10 12 12 9 7 8 10 10 10 11 12 12 15 19 23 26 28 28 28 29 30 30 31 31 31 31 32 31 31 31 31 31 31 30 29 28 28 27 27 26 26 26 27 26 25 25 25 24 23 24 25 27
29 28 26 24 22 19 16 16 15 15 14 13 12 11 9 9 9 11 12 11 9 7 5 4 3 3 4 5 6 9 10 8 6 6 8 8 9 9 9 9 8 9 10 10 10 9 9 10 15 19 22 26 27 26 26 26 27 28 29 30 30 30 31 31 32 31 30 30 29 28 27 27 26 26 26 26 26 26 26 25 24 25 25 24 24 25 25
29 28 25 23 21 19 16 16 16 15 14 13 13 11 10 9 9 11 12 12 11 9 6 4 4 5 5 5 6 8 10 9 8 8 8 9 9 9 9 11 10 7 8 9 8 8 10 12 14 16 19 23 26 25 23 23 24 25 26 27 27 27 29 30 30 29 28 27 26 25 24 24 24 24 25 25 25 26 27 26 25 24 25 25 25 24 24
29 27 25 23 21 19 17 16 16 15 14 14 13 12 10 10 10 11 13 14 13 11 8 7 7 7 6 5 6 8 9 10 10 10 9 10 11 11 12 13 12 9 9 10 8 7 10 14 15 15 17 20 22 22 21 20 20 21 22 23 23 24 26 26 26 26 25 24 23 23 22 22 23 24 24 24 24 24 26 27 26 25 25 25 24 23 22
29 27 25 22 21 19 17 16 16 16 15 14 13 12 11 11 10 11 13 15 14 13 11 9 9 9 7 6 6 7 8 9 11 11 11 10 12 13 14 12 10 9 10 10 9 10 12 13 13 14 17 19 21 20 19 17 17 18 18 18 18 19 21 22 22 22 22 22 22 21 21 22 23 23 24 24 24 24 23 23 23 23 25 26 25 23 22
29 27 24 22 21 19 17 16 16 16 15 14 14 12 12 12 11 11 13 15 15 14 13 12 10 10 8 6 5 6 7 8 10 11 12 12 12 14 14 13 11 10 10 9 10 11 13 12 10 9 12 17 22 21 18 16 15 16 16 16 16 17 19 20 20 20 20 20 20 19 19 20 21 22 22 23 24 25 25 24 22 20 21 24 26 26 24
29 27 24 22 20 18 17 17 16 16 15 15 14 13 12 12 12 12 13 16 17 15 14 13 12 10 9 8 7 7 8 8 9 11 12 13 13 15 14 13 12 12 11 10 10 11 11 10 10 9 9 12 19 21 19 16 14 14 13 13 15 19 20 20 19 19 19 19 19 19 19 19 20 20 20 21 22 23 25 26 25 23 22 21 23 25 26
29 27 24 22 20 18 17 16 16 15 15 15 14 13 13 13 13 13 13 16 17 17 16 15 13 11 10 9 9 8 8 8 9 10 11 13 14 15 15 14 13 13 12 12 11 10 10 10 10 10 9 10 15 18 18 16 14 14 13 12 14 19 21 21 19 18 18 18 19 19 19 19 19 19 19 19 20 21 22 23 24 23 23 22 21 22 24
28 26 24 21 20 18 17 16 16 16 16 15 15 14 13 13 13 13 13 15 17 18 17 15 13 12 11 10 10 9 8 9 9 9 9 10 12 15 16 16 15 14 13 13 12 11 11 11 11 11 11 11 13 16 17 16 15 14 14 14 15 16 18 19 19 19 19 18 18 18 18 18 18 18 18 19 20 20 20 21 21 21 22 22 22 23 23
27 25 23 21 19 18 16 16 16 17 16 16 15 15 14 14 14 14 14 15 17 18 17 16 14 13 12 11 10 10 9 9 9 9 9 8 9 12 15 17 17 17 16 15 13 12 13 13 13 13 13 13 14 15 16 17 16 15 14 14 15 14 15 15 16 18 18 18 17 17 18 18 18 18 19 20 20 21 20 20 21 21 21 21 22 23 23
27 25 23 21 19 17 17 17 17 17 17 16 16 15 15 14 14 15 15 16 17 18 17 16 15 14 12 12 11 10 9 9 8 9 9 9 9 10 11 13 16 18 19 18 16 15 15 15 14 14 15 15 15 15 16 17 17 17 16 15 14 14 14 14 14 14 15 15 16 17 17 18 19 20 21 21 22 22 21 20 19 19 19 19 19 20 21
26 24 22 21 19 18 17 18 18 17 17 17 16 15 15 15 15 16 16 16 18 19 18 16 15 15 14 13 11 10 9 9 8 8 9 9 10 10 10 11 13 16 18 19 18 18 17 17 16 15 15 16 16 16 15 15 16 16 17 17 17 16 16 15 15 14 14 14 15 16 17 18 19 20 21 22 23 22 21 20 18 17 17 17 18 18 19
26 24 22 20 19 18 18 18 18 17 17 17 16 16 15 15 16 17 17 17 18 19 19 17 16 16 15 13 12 11 10 10 9 9 9 10 11 11 11 11 11 12 13 15 17 18 19 18 17 16 16 16 16 16 16 16 15 15 16 16 17 17 17 18 18 17 16 16 16 17 17 18 19 19 20 21 21 21 21 20 19 18 18 18 18 18 19
25 23 21 20 18 18 18 18 18 17 17 16 16 16 16 16 16 17 18 18 18 19 20 19 17 16 15 14 12 12 11 11 10 11 11 10 11 12 12 11 11 11 11 11 14 17 19 19 19 18 17 16 17 17 17 16 16 16 16 15 15 15 16 17 18 19 19 18 18 19 19 20 20 21 21 21 21 21 21 21 21 21 20 20 20 21 21
24 22 20 19 18 18 18 18 18 17 17 16 16 15 15 16 17 18 19 19 18 19 20 20 18 17 16 15 13 13 12 12 12 12 11 11 11 12 12 12 12 11 11 10 11 14 17 19 19 18 17 17 17 17 17 17 17 16 16 15 15 14 15 16 17 18 19 20 20 21 21 22 22 23 23 24 24 24 23 24 24 24 24 24 24 24 24
23 21 19 18 18 18 18 18 18 18 18 17 16 15 15 16 17 18 20 20 20 20 21 21 21 19 18 16 14 14 13 13 13 13 12 11 11 12 12 12 12 12 11 10 10 11 13 16 18 18 19 19 18 18 17 17 17 17 17 17 16 16 16 16 17 18 19 19 20 20 21 22 23 24 25 25 26 26 26 26 26 26 26 26 26 26 26
21 19 18 17 18 18 18 18 19 19 18 17 16 16 16 16 17 19 21 22 21 21 22 22 22 21 19 17 16 15 14 13 13 13 13 12 12 12 13 13 13 12 12 11 10 10 11 13 15 18 19 19 19 18 18 17 17 17 17 18 18 18 18 18 18 19 19 19 19 19 20 21 22 23 23 24 24 25 25 26 26 26 26 25 25 25 24
19 18 17 17 18 18 18 19 20 19 18 17 17 17 16 17 18 21 23 23 22 22 22 22 22 21 19 18 17 16 15 14 13 13 13 13 12 12 13 13 13 13 12 11 11 11 11 12 14 16 17 18 19 19 18 18 17 17 17 18 19 19 19 19 20 19 19 18 18 17 18 18 19 20 22 22 22 23 23 23 24 24 24 24 24 23 24
18 17 16 17 18 18 19 19 20 19 18 18 18 17 17 18 20 21 23 23 22 22 21 22 22 21 20 19 18 17 16 15 14 13 13 13 12 12 12 12 12 12 12 10 10 11 12 13 14 14 15 16 17 17 17 17 17 17 17 17 17 17 17 18 18 19 18 17 17 16 15 15 16 17 18 19 20 20 21 21 22 22 22 22 22 22 22
17 16 16 17 18 19 19 20 20 19 19 19 19 19 19 20 20 21 22 22 22 22 22 21 21 20 20 19 19 18 17 15 14 13 13 12 12 12 12 12 12 11 10 9 10 11 13 14 14 14 13 14 15 15 15 15 16 16 16 16 15 15 15 15 15 16 17 16 16 15 15 14 14 14 14 15 16 17 18 19 19 19 20 20 21 21 21
17 16 17 18 19 20 20 20 20 20 20 20 20 19 19 19 20 21 22 22 22 23 23 22 20 19 19 19 19 18 17 16 15 14 13 12 12 12 12 13 13 11 9 8 10 11 13 14 14 13 13 14 14 13 13 14 15 14 14 13 13 13 13 12 13 14 15 15 15 15 15 15 15 15 15 15 16 16 17 18 18 19 20 21 22 22 23
17 17 17 19 20 20 21 21 21 20 20 20 19 19 19 19 19 20 20 21 22 22 22 21 20 19 18 17 18 18 18 18 17 15 13 13 13 13 13 14 14 11 9 9 9 9 10 12 13 13 13 13 12 11 12 13 13 12 11 11 11 10 10 10 11 12 13 13 14 14 15 15 15 15 15 16 16 16 16 17 18 19 20 20 21 22 23
17 17 18 19 20 21 22 22 22 21 20 19 19 19 19 19 19 19 19 20 21 22 21 21 21 21 19 17 17 17 18 19 18 17 16 15 15 14 15 15 15 12 11 10 9 8 9 11 12 13 12 11 10 11 12 12 11 11 10 10 9 9 8 9 9 10 10 10 11 11 12 12 12 12 12 13 13 14 15 16 17 17 17 18 18 19 19
17 18 18 19 20 21 22 22 22 21 19 18 18 19 19 19 20 19 20 21 21 22 21 21 21 21 21 19 17 16 17 18 18 18 17 17 17 16 16 16 15 14 12 11 10 9 10 11 12 12 12 11 11 12 12 11 10 10 10 9 8 7 8 8 9 9 9 9 9 9 9 9 8 8 9 9 11 12 13 14 15 15 16 16 16 16 17
18 18 19 19 20 21 22 23 23 21 19 18 19 19 19 19 19 19 19 20 21 22 22 22 21 21 20 19 17 17 17 18 18 18 18 18 18 18 18 17 16 15 14 13 11 11 11 12 12 13 13 13 13 12 12 11 11 10 10 9 8 7 7 8 8 8 8 9 9 9 8 7 7 7 7 8 9 11 12 13 14 14 15 15 15 15 15
18 19 19 20 20 21 22 23 23 22 20 19 19 19 19 19 19 18 18 19 20 21 22 22 21 21 21 19 18 18 17 17 17 18 18 18 18 18 18 19 18 16 14 13 12 11 11 13 14 14 14 14 14 14 14 13 13 13 12 10 9 9 8 9 9 9 9 9 9 9 8 8 8 8 8 9 10 11 11 12 13 14 14 15 14 13 12
18 19 19 19 21 22 22 22 23 22 21 19 19 19 20 20 19 18 18 18 19 21 21 20 20 21 22 21 20 19 19 18 18 18 18 17 18 18 19 20 19 16 15 14 13 13 13 14 15 16 15 15 16 16 16 15 15 14 13 11 10 10 11 10 10 10 10 10 10 10 9 9 9 9 9 9 10 11 11 11 12 12 13 13 13 13 12
Wind_Direction
342 340 337 329 325 328 332 336 343 349 350 350 351 353 356 2 6 7 6 5 4 5 6 7 9 12 11 10 10 11 13 18 25 29 26 12 8 35 74 117 158 151 149 159 169 175 178 179 178 176 176 179 180 178 178 180 181 180 181 185 187 186 189 190 189 190 194 194 193 192 193 197 201 202 201 201 200 200 202 206 210 215 218 220 221 221 219
343 341 339 332 324 326 330 333 337 344 348 348 351 354 356 1 6 8 9 6 3 4 6 5 9 13 14 15 14 13 15 20 21 22 25 27 27 56 130 141 140 132 125 135 155 169 177 181 181 177 176 178 178 176 176 178 179 178 178 180 183 185 188 190 188 187 189 192 192 192 193 196 199 201 201 202 201 201 202 205 209 215 221 223 225 226 224
343 341 340 335 326 324 329 331 333 340 346 347 349 352 356 2 6 8 10 10 7 7 6 3 5 9 12 17 18 17 22 23 17 19 37 49 58 110 132 136 136 125 116 127 148 169 177 178 180 178 176 176 176 175 175 176 175 173 173 175 177 180 184 189 190 189 189 190 191 193 194 194 196 199 200 201 200 201 203 204 208 213 220 224 227 229 230
342 341 340 338 329 324 328 331 332 338 345 347 347 348 353 1 6 8 10 13 12 10 8 5 4 4 9 16 19 20 26 24 17 24 50 68 91 122 126 127 135 131 120 129 143 158 170 172 176 178 176 173 173 174 173 171 169 168 170 173 173 175 180 186 191 193 194 192 192 194 195 195 196 197 198 199 199 200 202 204 208 212 216 223 227 228 231
341 341 341 339 333 326 327 331 333 337 343 347 347 347 350 358 5 7 9 14 17 14 9 7 5 4 9 15 18 21 25 25 33 52 69 85 106 124 123 116 125 131 127 132 138 150 166 171 173 175 173 171 172 172 169 164 163 166 170 172 171 174 179 184 189 192 193 195 195 196 196 197 197 197 197 197 197 199 201 202 206 210 213 218 223 224 225
340 340 341 340 336 329 327 330 333 335 342 346 348 350 352 356 1 3 6 13 19 17 12 9 8 9 13 14 15 21 27 37 62 72 77 93 111 122 121 112 111 119 127 136 145 155 164 167 170 172 172 171 171 167 162 160 163 169 173 172 170 174 178 180 186 188 189 193 197 198 198 197 198 199 198 197 197 199 201 201 202 207 209 210 215 220 220
339 339 340 340 338 332 328 329 331 334 340 346 349 354 358 357 357 -0 4 9 13 16 16 11 7 8 12 13 14 20 33 56 77 78 84 101 110 112 114 117 123 128 132 140 153 160 158 157 164 170 171 171 169 162 158 163 168 172 175 171 168 174 177 176 180 185 187 190 194 197 199 197 197 199 199 198 198 200 201 201 202 205 206 207 211 217 218
339 338 339 340 339 335 330 328 330 334 340 346 351 354 357 357 358 3 7 6 5 9 15 12 5 4 8 15 21 26 42 78 96 92 97 112 112 107 111 121 129 135 140 145 151 152 152 154 160 169 172 169 165 160 160 167 171 173 175 173 170 173 175 174 175 179 183 188 190 194 196 196 197 199 199 199 200 201 202 202 204 206 206 207 213 217 217
339 338 337 338 338 336 332 328 328 332 338 346 351 352 353 355 357 4 12 11 5 5 10 12 6 2 8 21 35 41 53 87 100 93 96 112 117 120 126 127 127 129 135 142 146 148 155 161 166 171 172 167 162 160 163 168 170 173 178 175 172 175 177 177 176 176 179 185 188 192 193 193 195 198 199 200 201 204 205 204 206 209 209 210 215 218 218
339 337 336 336 337 337 335 329 326 328 333 341 348 352 354 355 355 359 7 12 12 10 13 14 9 9 17 30 45 54 60 73 82 85 95 111 123 130 135 133 129 126 132 143 149 150 158 165 168 170 168 162 158 159 164 167 169 175 180 176 173 177 179 180 181 180 181 183 185 189 190 191 194 197 198 199 202 204 206 206 208 211 213 214 217 220 219
338 337 335 334 335 335 336 332 325 324 328 334 341 347 351 353 355 357 1 4 11 18 21 19 17 19 26 34 46 59 67 68 73 85 100 119 132 135 134 133 133 137 141 145 146 145 152 162 166 166 163 158 157 161 166 169 170 175 180 177 175 177 179 181 182 182 184 184 184 187 190 192 195 197 198 198 201 204 207 207 209 212 215 215 217 219 220
336 336 334 332 333 333 335 335 328 322 321 325 332 339 346 351 354 358 360 360 3 13 21 22 21 24 29 39 53 66 72 71 77 94 113 130 136 128 130 143 149 149 146 142 143 147 154 164 166 162 159 157 160 166 170 172 175 177 178 178 176 175 176 179 181 183 183 182 184 189 192 195 197 198 199 199 200 204 207 208 210 213 214 215 216 218 218
334 334 333 331 331 332 333 335 332 324 318 319 325 333 341 348 353 356 359 360 360 6 16 20 19 21 29 45 61 72 80 83 94 113 125 134 130 104 129 154 153 151 147 143 147 151 157 165 164 159 158 160 165 171 174 175 177 179 181 181 178 173 174 177 179 182 182 181 185 191 194 197 198 199 201 202 201 204 207 209 212 213 213 214 215 217 219
334 333 332 329 328 330 331 333 333 328 318 314 318 326 334 343 350 355 358 358 359 5 15 20 17 19 33 52 66 80 91 95 107 117 103 96 100 111 139 150 151 150 146 143 150 156 159 163 163 161 161 163 168 173 176 177 178 182 184 182 178 175 177 180 181 183 187 189 191 194 196 198 198 199 202 204 204 207 210 212 214 215 214 215 215 216 220
334 331 330 328 326 326 329 331 332 330 323 313 310 317 326 333 342 353 358 357 358 5 17 25 22 30 49 61 68 84 97 98 101 85 51 56 79 122 146 150 149 148 144 143 151 159 161 163 166 166 166 167 170 172 173 173 175 180 179 173 170 175 181 183 183 185 189 192 195 197 198 199 199 200 203 207 207 209 212 213 215 217 217 217 217 218 221
334 330 328 327 324 322 326 329 329 329 326 317 307 307 315 325 336 349 358 358 354 360 23 36 33 47 66 71 70 80 94 107 105 66 39 43 65 119 148 151 148 148 148 149 154 162 165 166 169 169 166 164 168 171 171 167 165 168 167 163 164 172 177 179 181 185 189 190 193 197 199 201 201 201 204 207 207 208 210 211 213 217 219 220 220 220 222
333 330 327 325 323 319 321 326 327 327 326 321 311 303 305 316 329 343 354 357 350 350 15 38 41 55 65 67 69 71 61 243 135 38 34 41 57 108 146 156 154 151 153 156 160 167 172 171 169 167 161 157 163 170 171 163 159 159 159 162 167 171 174 177 182 188 193 193 193 196 198 199 200 202 205 208 206 205 208 211 213 215 218 221 223 223 223
332 329 326 323 321 318 316 320 324 325 324 322 316 305 300 309 321 333 346 352 346 341 357 22 29 40 50 55 67 72 47 260 273 294 311 49 58 101 143 158 159 155 158 164 167 172 178 175 169 167 164 158 160 167 169 163 159 160 162 166 171 171 173 178 182 187 192 194 194 196 196 196 196 198 203 207 208 208 208 212 215 215 216 220 224 225 226
331 329 324 322 320 316 313 314 319 322 322 320 316 306 296 298 308 320 333 347 346 335 338 7 25 34 50 58 64 67 73 225 267 270 260 277 47 134 144 157 163 162 163 165 166 173 181 181 176 174 173 167 164 169 172 169 166 166 169 171 173 172 173 178 181 185 189 192 195 197 197 195 193 195 199 205 209 211 211 213 216 216 217 221 224 226 228
330 328 324 320 318 314 310 309 313 319 319 316 315 308 293 285 294 309 323 341 347 333 331 357 19 35 59 67 60 60 68 75 262 232 233 259 192 157 149 151 160 164 166 165 166 171 181 187 187 185 184 181 177 176 177 175 172 172 173 175 174 175 177 180 184 188 192 196 202 204 204 202 199 198 201 204 206 209 211 213 217 218 219 221 223 225 228
329 328 324 319 316 312 308 305 306 312 316 313 310 307 294 280 282 297 311 328 338 328 328 349 358 17 46 55 62 55 53 50 75 147 159 151 151 158 158 155 156 160 164 167 169 172 178 187 194 195 194 192 188 184 183 180 177 176 177 178 178 180 183 187 191 196 200 205 210 212 212 211 208 205 206 207 206 207 208 212 217 220 222 224 225 227 229
328 327 323 318 314 310 306 302 301 305 310 310 306 303 294 277 269 279 294 308 322 324 326 335 327 343 63 65 190 90 68 69 91 124 141 142 146 158 165 165 166 167 167 169 174 179 182 186 192 199 202 201 199 196 193 188 185 183 183 184 186 189 193 198 204 209 212 213 214 214 215 216 216 215 214 213 212 211 211 213 217 220 223 226 227 229 231
328 327 323 318 312 308 303 299 296 298 303 305 302 299 295 277 259 265 282 292 302 316 319 309 288 250 130 111 160 136 97 81 91 125 142 147 151 159 164 166 171 177 180 182 186 189 191 192 194 198 203 206 207 208 207 204 201 197 196 197 199 201 206 210 214 217 218 216 214 214 215 217 221 222 222 221 219 217 217 218 219 221 223 225 226 228 230
327 327 323 317 311 307 302 296 292 292 296 300 298 294 292 281 255 249 266 282 291 303 296 267 248 233 177 138 154 151 116 85 86 122 146 157 161 162 162 164 170 177 183 187 191 195 200 203 203 203 204 205 206 209 212 213 214 211 210 210 210 210 213 216 217 218 219 218 217 217 219 222 225 226 228 228 226 223 220 219 220 223 225 227 227 228 231
326 326 322 316 310 305 300 293 288 287 289 293 294 288 283 279 259 243 249 265 271 283 291 272 234 222 201 167 164 169 149 106 88 111 144 164 167 166 164 165 172 177 175 172 178 187 196 202 204 206 208 206 204 205 208 212 215 216 216 216 217 218 220 222 221 221 221 221 221 222 224 226 228 230 232 233 231 228 225 223 223 224 226 228 230 231 232
325 326 322 316 308 302 297 290 284 282 283 286 288 284 276 272 260 243 242 253 257 260 279 290 276 237 208 182 170 177 177 157 116 119 135 152 165 174 177 176 179 184 183 177 172 170 175 187 194 200 206 206 204 204 206 210 215 217 218 220 222 223 226 227 227 227 226 226 226 226 227 229 231 233 234 234 233 232 230 230 229 228 227 229 231 232 233
324 325 322 315 307 300 293 287 281 278 277 279 282 279 270 265 257 242 236 244 254 254 253 270 283 265 223 195 178 179 186 187 173 157 156 159 169 179 182 177 177 186 188 185 185 186 189 189 190 194 201 203 204 206 208 212 216 218 218 220 223 224 225 227 227 227 228 228 229 228 229 231 233 233 232 232 232 232 232 233 233 232 231 233 233 232 232
323 323 321 314 305 297 290 283 278 274 272 274 277 274 265 258 252 241 231 234 246 250 243 243 256 253 235 217 198 187 187 188 183 174 172 174 175 174 170 160 152 166 191 192 193 207 208 196 188 188 194 200 206 209 210 212 216 216 215 216 219 221 223 223 223 224 225 225 225 225 226 227 228 228 227 228 229 231 231 233 234 234 235 235 234 231 231
322 321 319 312 303 294 286 278 274 271 269 268 271 270 262 253 248 239 229 228 237 244 244 241 243 241 232 225 217 204 192 186 181 172 170 181 184 173 157 146 139 147 176 183 175 178 183 181 181 185 188 192 198 202 201 202 205 208 209 211 213 215 218 218 218 221 225 226 225 224 224 224 225 224 224 225 227 228 230 231 232 234 235 234 231 229 229
320 318 315 309 301 291 282 275 270 268 266 264 265 266 260 251 245 238 228 224 230 239 241 241 241 238 231 226 227 222 209 200 192 178 169 180 190 176 156 146 145 152 161 159 152 155 164 170 181 191 195 196 196 194 193 193 194 195 200 203 205 208 212 214 215 218 223 226 226 225 224 225 227 227 227 227 227 225 224 225 228 232 233 231 229 229 229
318 316 312 306 298 289 279 271 267 265 264 262 261 263 259 249 243 238 228 222 225 233 238 241 242 240 236 232 232 230 222 216 213 200 183 181 187 183 169 159 158 162 162 154 148 151 157 162 166 171 186 198 200 196 193 190 186 186 192 199 203 204 204 205 207 211 216 219 221 222 223 224 227 229 229 229 227 224 223 225 230 235 234 231 230 230 230
317 314 309 302 295 286 276 268 264 262 262 260 258 259 257 248 241 237 228 221 222 227 234 239 241 240 238 235 232 230 224 217 216 214 206 199 196 194 189 180 171 168 168 165 159 155 155 158 157 148 156 182 192 192 191 188 184 186 194 204 208 207 204 203 205 209 212 215 218 220 221 223 225 227 228 228 227 226 227 231 236 239 238 234 231 230 230
315 311 306 299 292 283 273 266 262 260 259 258 255 255 254 246 238 236 230 222 221 224 230 235 240 239 235 231 230 228 225 218 212 210 213 216 213 208 205 201 194 185 181 178 175 170 166 165 166 163 159 164 174 180 185 187 189 195 204 209 207 205 205 205 205 208 212 216 218 221 223 225 226 226 226 227 227 226 227 230 233 234 234 232 231 229 228
313 309 303 296 288 280 270 262 258 256 254 253 250 250 249 242 234 233 230 224 221 223 226 231 237 240 235 229 228 225 220 216 211 205 207 220 226 223 219 216 214 209 201 193 187 183 182 180 179 176 172 167 170 178 186 189 191 195 201 202 200 200 203 206 208 212 217 219 220 221 222 222 222 222 223 224 225 224 223 225 227 229 230 230 230 229 228
310 306 300 292 284 276 265 256 252 251 250 249 247 246 244 238 230 228 228 225 221 222 224 226 231 237 236 230 226 224 218 214 212 207 204 214 227 228 225 223 222 222 218 209 199 194 193 192 190 188 186 183 183 189 195 197 197 196 194 192 191 192 196 202 209 215 220 221 219 217 218 218 219 220 221 222 221 220 219 221 223 226 228 229 230 231 232
307 303 297 289 280 270 259 251 248 247 247 246 244 243 241 236 228 224 224 224 221 219 220 222 224 229 231 227 224 221 218 216 213 208 206 211 220 223 223 222 223 224 224 220 212 205 203 202 200 198 197 196 195 196 199 203 206 207 204 201 198 196 196 199 205 212 216 216 214 213 215 218 220 222 223 222 221 220 220 220 220 223 226 229 231 232 234
305 300 293 285 275 264 254 248 245 245 245 244 242 240 238 235 228 222 221 222 220 217 217 218 220 223 225 224 220 219 220 221 218 212 209 214 219 218 216 219 222 224 225 223 218 213 211 210 209 207 206 206 205 205 204 205 208 212 214 215 215 215 213 212 211 211 212 211 210 210 213 217 221 224 225 223 221 221 221 220 220 221 225 228 231 233 236
302 297 290 281 270 260 251 246 243 243 243 242 240 239 236 232 227 222 219 219 219 216 214 214 217 220 222 221 217 216 220 223 223 220 215 215 220 220 218 219 224 226 225 223 220 217 215 215 214 213 212 212 212 211 210 210 211 214 218 220 221 222 223 222 219 217 216 213 211 210 212 216 220 224 225 225 224 224 223 223 224 226 230 234 238 241 243
299 293 286 277 267 256 249 244 241 240 241 240 239 238 235 230 225 221 218 218 217 214 211 212 214 217 219 217 213 212 214 216 219 221 218 215 219 225 225 223 224 226 225 221 218 217 216 215 215 216 216 216 215 214 214 213 212 215 219 221 220 220 221 224 224 224 223 221 219 217 216 218 220 224 227 229 229 229 229 230 232 235 239 243 246 248 250
296 290 281 271 262 253 246 241 238 237 238 238 237 235 233 229 224 219 216 215 215 213 210 210 212 214 215 213 209 208 208 207 211 218 220 217 219 226 229 228 225 225 224 222 219 218 216 215 214 215 216 217 216 215 215 215 214 215 218 220 220 218 219 221 224 226 228 228 228 227 226 227 227 229 231 234 235 237 238 239 241 244 247 249 251 253 254
292 286 276 265 257 249 242 237 235 235 236 236 234 232 230 228 223 218 215 213 213 212 210 209 210 211 211 209 208 208 208 208 210 215 218 219 220 224 228 229 228 226 225 223 220 217 215 211 210 211 214 216 217 216 216 216 216 217 220 221 222 222 222 223 225 227 229 231 233 234 235 236 236 237 238 239 241 243 244 246 248 250 252 254 256 257 257
287 280 270 260 252 245 238 234 233 232 233 234 232 228 227 224 220 216 214 212 211 211 210 210 210 211 209 207 208 209 210 210 213 216 218 220 221 222 226 228 229 227 225 222 218 215 211 208 208 210 213 215 217 218 219 219 218 219 222 225 226 227 228 229 230 231 232 233 235 237 239 241 242 244 245 245 246 246 247 248 250 252 253 255 256 256 255
284 274 264 255 248 241 236 233 231 231 231 232 230 227 224 220 217 215 215 214 212 210 209 210 211 212 211 210 209 209 210 211 214 216 218 220 221 223 226 230 230 230 226 221 216 215 213 212 211 212 213 215 217 218 219 220 220 222 224 227 228 229 231 232 234 234 234 233 233 235 238 243 246 248 249 248 247 246 246 247 248 249 251 252 253 253 254
279 269 259 251 245 239 233 230 229 228 229 229 227 225 222 219 217 217 217 216 214 211 209 210 212 213 213 213 214 212 211 212 214 218 220 221 221 224 226 229 230 230 227 223 219 217 216 217 218 216 214 214 214 214 214 215 217 220 224 227 229 230 232 234 235 235 233 231 230 232 237 242 247 249 250 249 247 245 244 244 245 247 249 250 252 254 255
273 264 255 248 242 237 232 228 226 226 226 226 224 222 221 220 219 219 218 216 213 212 210 211 212 213 214 215 217 218 215 214 215 219 221 221 222 223 225 227 229 228 223 220 218 215 213 218 224 224 219 215 212 210 210 213 216 219 223 227 229 231 232 231 231 230 229 228 229 232 235 239 243 245 247 248 246 245 245 246 247 249 251 253 255 257 258
267 260 252 245 240 236 230 226 224 225 227 227 226 225 225 224 222 221 218 215 212 211 211 211 211 213 214 216 219 220 219 218 219 220 221 222 225 227 228 230 232 227 215 210 213 213 211 216 223 225 222 219 216 212 213 218 222 224 225 226 226 226 224 221 221 224 226 229 232 235 238 240 242 243 245 247 247 248 249 251 252 254 255 257 259 260 261
264 257 250 244 240 235 229 225 223 226 228 229 228 228 228 227 226 224 222 217 213 211 211 212 211 211 212 216 219 221 221 221 222 221 220 222 225 228 230 232 233 228 214 209 214 216 215 217 221 221 220 217 214 211 213 217 219 218 216 214 213 213 213 213 215 219 224 228 233 237 239 240 241 243 245 247 248 249 250 251 253 255 256 258 259 261 262
261 256 250 244 239 233 228 224 223 225 227 229 230 229 229 228 225 223 221 219 215 211 210 212 212 211 210 213 217 220 221 222 222 222 221 221 223 226 229 232 233 228 217 212 215 218 217 217 219 220 217 211 206 205 207 207 204 202 201 202 200 200 203 209 213 216 220 224 228 231 233 234 234 235 237 241 245 247 248 250 251 253 255 257 259 262 264
259 253 248 243 238 232 226 223 223 225 226 229 231 232 232 231 227 221 218 217 214 209 207 208 211 210 210 211 215 219 221 221 221 221 221 221 221 223 227 231 232 229 222 214 210 210 210 210 210 211 210 206 204 205 205 203 200 199 198 196 193 193 199 208 213 214 215 217 219 220 222 225 228 232 236 240 245 248 251 252 253 254 256 258 260 262 264
257 252 247 242 236 230 224 221 221 223 225 227 229 231 233 234 232 225 218 215 213 209 206 207 209 211 211 211 214 219 221 220 220 221 222 222 222 223 225 228 229 227 224 217 211 208 208 207 205 205 206 206 206 208 208 208 208 209 206 201 198 198 201 208 214 214 210 210 211 212 213 217 225 235 243 250 254 257 259 260 260 259 259 259 260 262 264
255 251 246 240 233 228 223 220 220 222 223 225 228 229 231 233 233 227 219 216 212 206 203 205 209 212 211 212 215 219 220 219 218 220 222 223 224 225 226 228 227 225 221 217 211 208 209 211 209 208 208 210 212 215 215 214 216 218 217 213 211 211 211 210 213 217 216 214 215 217 220 224 232 242 251 257 262 264 266 268 267 265 262 261 260 261 263
254 249 245 239 232 227 223 220 220 221 222 224 227 228 229 231 231 226 219 215 211 203 199 202 210 213 211 211 215 219 219 217 217 219 221 222 224 226 229 231 232 229 225 220 212 206 206 211 212 210 210 213 218 220 220 219 218 220 221 220 220 223 224 221 217 219 222 223 224 227 233 240 247 254 259 262 264 265 266 267 267 265 262 259 257 256 258